Regional Weather Roundup
Issued by NWS

Home | Current Version | Previous Version | Text Only | Print | Product List | Glossary On
Versions: 1 2 3 4 5 6 7 8 9 10 11 12 13 14 15 16 17 18 19 20 21 22 23 24 25 26 27 28 29 30 31 32 33 34 35 36 37 38 39 40 41 42 43 44 45 46 47 48 49 50
000
ASCA44 KEWX 010820
RWRMX

LATIN AMERICA AND CARIBBEAN REGIONAL WEATHER ROUNDUP
NATIONAL WEATHER SERVICE AUSTIN/SAN ANTONIO TX
300 AM CDT SAT AUG 01 2015

NOTE: "FAIR" INDICATED FEW OR NO CLOUDS BELOW 12,000 FEET WITH NO
SIGNIFICANT WEATHER AND/OR OBSTRUCTIONS TO VISIBILITY.

BAJA CALIFORNIA

CITY           SKY/WX    TMP DP  RH WIND       PRES   REMARKS
TIJUANA        CLOUDY    68  63  83 N3        30.01S

NORTHWESTERN MEXICO

CITY           SKY/WX    TMP DP  RH WIND       PRES   REMARKS
HERMOSILLO     CLEAR     88  72  58 CALM      29.86F HX  94

NORTHEASTERN MEXICO

CITY           SKY/WX    TMP DP  RH WIND       PRES   REMARKS
MONTERREY      MOCLDY    77  64  65 E7        29.98F

WESTERN MEXICO

CITY           SKY/WX    TMP DP  RH WIND       PRES   REMARKS
GUADALAJARA    RAIN      68  64  88 N3        30.18F
MAZATLAN       CLOUDY    75  70  83 NE7       29.84S
P. VALLARTA      N/A    N/A N/A N/A MISG        N/A
ZACATECAS        N/A    N/A N/A N/A MISG        N/A

CENTRAL MEXICO

CITY           SKY/WX    TMP DP  RH WIND       PRES   REMARKS
MEXICO CITY    MOCLDY    61  46  59 W9        30.35F
QUERETARO      PTCLDY    57  54  88 E7        30.34F
S. LUIS POTOSI PTCLDY    61  48  63 CALM      30.30F
TOLUCA         MOCLDY    54  48  82 SE7       30.42F

SOUTHERN MEXICO

CITY           SKY/WX    TMP DP  RH WIND       PRES   REMARKS
ACAPULCO       CLOUDY    77  73  88 CALM      29.94F
OAXACA         PTCLDY    63  57  82 NE5       30.26F
VERACRUZ         N/A    N/A N/A N/A MISG        N/A

YUCATAN PENINSULA

CITY           SKY/WX    TMP DP  RH WIND       PRES   REMARKS
CANCUN         PTCLDY    79  77  94 SE2       29.98F
COZUMEL        PTCLDY    73  73 100 CALM      29.99S
MERIDA         PTCLDY    79  73  83 E5        29.97F
TAPACHULA      MOCLDY    77  73  88 CALM      29.90F

CENTRAL AMERICA

CITY           SKY/WX    TMP DP  RH WIND       PRES   REMARKS

CARIBBEAN

CITY           SKY/WX    TMP DP  RH WIND       PRES   REMARKS
CURACAO        PTCLDY    81  75  83 SE10      29.89F
KINGSTON       PTCLDY    82  73  74 N9        29.92F
NASSAU         CLOUDY    82  75  78 CALM      30.03
SAN JUAN       PTCLDY    81  73  78 E6        30.02S
SANTO DOMINGO  PTCLDY    77  75  94 NE6       29.97S
ST. CROIX      CLEAR     81  72  74 E10       30.01S
ST. MAARTEN    PTCLDY    82  73  74 E9        30.00S
ST. THOMAS     CLEAR     81  73  78 E7        30.01S

$$




USA.gov is the U.S. government's official web portal to all federal, state and local government web resources and services.